Weather History for Gillette, WY

Change the Weather History Date:

Wednesday, January 9, 2013

  Actual Average Record
Temperature  
Mean Temperature 36 °F 26 °F  
Max Temperature 48 °F 38 °F - ()
Min Temperature 23 °F 14 °F - ()
Degree Days  
Heating Degree Days 29 39  
Month to date heating degree days 360 356  
Since 1 July heating degree days 3200 3497  
Cooling Degree Days 0 0  
Month to date cooling degree days 0 0  
Year to date cooling degree days 0 0  
Moisture  
Dew Point 23 °F    
Average Humidity 56    
Maximum Humidity 74    
Minimum Humidity 38    
Precipitation  
Precipitation 0.00 in 0.01 in - ()
Month to date precipitation 0.04 0.09  
Year to date precipitation 0.04 0.09  
Sea Level Pressure  
Sea Level Pressure 29.98 in    
Wind  
Wind Speed 24 mph (SSW)    
Max Wind Speed 39 mph    
Max Gust Speed 53 mph    
Visibility 10 miles    
Events      
T = Trace of Precipitation, MM = Missing Value Source: NWS Daily Summary

Daily Weather History Graph

Daily Weather History Graph

Search for Another Location

Airport:

Trip Planner

Search our weather history database for the weather conditions in past years. The results will help you decide how hot, cold, wet, or windy it might be!

Date:

Astronomy

Jan. 09, 2013 Rise Set
Actual Time 7:37 AM MST 4:42 PM MST
Civil Twilight 7:04 AM MST 5:14 PM MST
Nautical Twilight 6:28 AM MST 5:51 PM MST
Astronomical Twilight 5:53 AM MST 6:26 PM MST
Moon 5:19 AM MST (1/9) 2:46 PM MST (1/9)
Length of Visible Light 10h 10m
Length of Day
9h 05m
Waning Crescent, 6% of the Moon is Illuminated
Jan 9
Waning Crescent
Jan 11
New
Jan 18
First Quarter
Jan 26
Full
Feb 3
Last Quarter

Hourly Weather History & Observations

Time (MST) Temp. Windchill Dew Point Humidity Pressure Visibility Wind Dir Wind Speed Gust Speed Precip Events Conditions
12:45 AM 26.6 °F 13.1 °F 17.6 °F 69% 30.03 in 10.0 mi SSW 19.6 mph - N/A   Clear
12:53 AM 28.4 °F 14.4 °F 17.6 °F 64% 30.03 in 10.0 mi SW 23.0 mph 32.2 mph N/A   Clear
1:53 AM 33.1 °F 20.3 °F 19.9 °F 59% 30.09 in 10.0 mi SSW 24.2 mph - N/A   Clear
2:53 AM 33.1 °F 20.3 °F 21.0 °F 61% 30.09 in 10.0 mi SSW 24.2 mph 34.5 mph N/A   Clear
3:53 AM 35.1 °F 22.7 °F 21.9 °F 59% 30.08 in 10.0 mi SW 25.3 mph 34.5 mph N/A   Clear
4:53 AM 37.0 °F 24.7 °F 21.9 °F 54% 30.07 in 10.0 mi SW 28.8 mph 34.5 mph N/A   Clear
5:53 AM 36.0 °F 24.4 °F 21.9 °F 57% 30.09 in 10.0 mi WSW 23.0 mph 34.5 mph N/A   Clear
6:53 AM 35.1 °F 22.7 °F 21.9 °F 59% 30.12 in 10.0 mi SW 25.3 mph 29.9 mph N/A   Clear
7:53 AM 37.4 °F 26.1 °F 21.2 °F 52% 30.02 in 10.0 mi SW 24.2 mph 33.4 mph N/A   Clear
8:53 AM 39.0 °F 27.8 °F 23.0 °F 53% 30.12 in 10.0 mi SW 26.5 mph 33.4 mph N/A   Clear
9:53 AM 41.0 °F 30.9 °F 25.0 °F 53% 30.09 in 10.0 mi SW 24.2 mph 31.1 mph N/A   Clear
10:53 AM 42.1 °F 32.8 °F 26.1 °F 53% 30.09 in 10.0 mi SW 21.9 mph - N/A   Clear
11:53 AM 44.1 °F 36.8 °F 27.0 °F 51% 30.06 in 10.0 mi SW 16.1 mph 21.9 mph N/A   Clear
12:53 PM 46.0 °F 39.3 °F 28.0 °F 50% 30.01 in 10.0 mi SW 16.1 mph 27.6 mph N/A   Clear
1:53 PM 46.9 °F - 28.9 °F 50% 29.98 in 10.0 mi SSW 19.6 mph - N/A   Clear
2:53 PM 46.9 °F - 28.9 °F 50% 29.98 in 10.0 mi SSE 16.1 mph - N/A   Clear
3:53 PM 45.0 °F 37.4 °F 28.0 °F 52% 29.96 in 10.0 mi South 18.4 mph 24.2 mph N/A   Clear
4:53 PM 43.0 °F 34.2 °F 26.1 °F 51% 29.91 in 10.0 mi South 20.7 mph 26.5 mph N/A   Clear
5:53 PM 43.0 °F 33.1 °F 25.0 °F 49% 29.88 in 10.0 mi South 26.5 mph 35.7 mph N/A   Clear
6:53 PM 46.0 °F 36.2 °F 23.0 °F 40% 29.83 in 10.0 mi SSW 33.4 mph 43.7 mph N/A   Clear
7:53 PM 45.0 °F 35.1 °F 21.9 °F 40% 29.81 in 10.0 mi SSW 31.1 mph 39.1 mph N/A   Clear
8:53 PM 43.0 °F 32.7 °F 21.9 °F 43% 29.81 in 10.0 mi South 28.8 mph 38.0 mph N/A   Clear
9:53 PM 43.0 °F 32.4 °F 21.9 °F 43% 29.78 in 10.0 mi SSW 31.1 mph 42.6 mph N/A   Clear
10:53 PM 44.1 °F 34.6 °F 21.9 °F 42% 29.78 in 10.0 mi South 26.5 mph 35.7 mph N/A   Clear
11:53 PM 44.1 °F 34.2 °F 21.0 °F 40% 29.75 in 10.0 mi SSW 28.8 mph 38.0 mph N/A   Clear